Regional Weather Roundup
Issued by NWS

Home | Current Version | Previous Version | Graphics & Text | Print | Product List | Glossary On
Versions: 1 2 3 4 5 6 7 8 9 10 11 12 13 14 15 16 17 18 19 20 21 22 23 24 25 26 27
000
ASUS45 KBOI 280010
RWRID

IDAHO REGIONAL WEATHER ROUNDUP
NATIONAL WEATHER SERVICE BOISE ID
600 PM MDT MON MAR 27 2017

NOTE: "FAIR" INDICATES FEW OR NO CLOUDS BELOW 12000 FEET
WITH NO SIGNIFICANT WEATHER AND/OR OBSTRUCTIONS TO VISIBILITY

IDZ012-014-280100-
SOUTHWEST IDAHO


CITY           SKY/WX    TMP DP  RH WIND       PRES   REMARKS
BOISE          PTSUNNY   52  32  46 NW22G32   30.06R
CALDWELL       MOSUNNY   54  33  45 W17       30.07S
MOUNTAIN HOME  SUNNY     54  29  38 NW28G33   30.03R
$$

IDZ016-017-280100-
SOUTHCENTRAL IDAHO


CITY           SKY/WX    TMP DP  RH WIND       PRES   REMARKS
BURLEY         MOSUNNY   50  27  40 W17G37    29.94R
JEROME         SUNNY     50  28  42 W25G38    29.97R
TWIN FALLS     SUNNY     48  25  40 W32       29.99R
$$

IDZ019>023-280100-
SOUTHEAST IDAHO


CITY           SKY/WX    TMP DP  RH WIND       PRES   REMARKS
IDAHO FALLS    CLOUDY    46  36  68 SW10      29.92S
POCATELLO      CLOUDY    48  36  63 SW14      29.93S
REXBURG        CLOUDY    45  37  73 SW8       29.91S
$$

IDZ006-010-011-018-031-032-280100-
CENTRAL IDAHO MOUNTAINS


CITY           SKY/WX    TMP DP  RH WIND       PRES   REMARKS
MCCALL         MOSUNNY   39  26  59 W13       30.03R WCI  31
HAILEY         MOSUNNY   48  28  46 CALM      29.93R
STANLEY          N/A     36  26  67 CALM      30.00R
SALMON         CLOUDY    50  25  37 N8        29.95R
CHALLIS        CLOUDY    47  28  47 N10       29.93R
$$

IDZ002-004-006-007-026-280100-
NORTHERN IDAHO


CITY           SKY/WX    TMP DP  RH WIND       PRES   REMARKS
LEWISTON       CLOUDY    56  34  43 VRB7G18   30.10R
LOWELL           N/A     43  41  93 VRB3      30.17R
COEUR D`ALENE  CLOUDY    48  38  68 CALM      30.07R
MULLAN PASS    PTSUNNY   29  27  92 VRB3      30.02R
$$




USA.gov is the U.S. government's official web portal to all federal, state and local government web resources and services.